Location: Köln
(50.9375°N, 6.9603°E)
Time: 18:47:40
(UTC+01:00)

ISS - Visible Passes

Search period start: 07 December 2019 00:00
Search period end: 17 December 2019 00:00
Orbit: 411 x 421 km, 51.6° (Epoch: 08 December)

Date Brightness Start Highest point End Pass type
(mag) Time Alt. Az. Time Alt. Az. Time Alt. Az.
07 Dec -3.5 17:37:19 10° WNW 17:40:40 71° SSW 17:44:00 10° ESE visible
07 Dec -1.4 19:14:27 10° W 19:17:00 20° SW 19:17:00 20° SW visible
08 Dec -1.9 18:25:46 10° W 18:28:43 29° SSW 18:31:04 14° SSE visible
09 Dec -2.4 17:37:12 10° W 17:40:23 41° SSW 17:43:33 10° SE visible
10 Dec -0.7 18:26:13 10° WSW 18:28:11 15° SW 18:30:09 10° S visible
11 Dec -1.1 17:37:16 10° W 17:39:54 21° SW 17:42:31 10° SSE visible
13 Dec 0.0 17:38:43 10° SW 17:39:13 10° SW 17:39:42 10° SW visible
